TEVEL2-1

Last updated on Sun Nov 16 2025 00:04:14 GMT+0000 (Coordinated Universal Time)

1 63217U 25052H 25319.23025700 .00019473 00000+0 77327-3 0 9994 2 63217 97.4082 211.0899 0004194 128.0712 232.0905 15.25365779 37382
UTC large
Height (km)
Speed (km/s)
/
Latitude / Longitude
Inclination (degrees)
Orbital Period (minutes)
Azimuth
Elevation
Range (km)
Doppler Factor

Next 0 passes for location: London (51.5072 / 0.1276)

Sorry there are no passes over London.